Time,TemperatureF,DewpointF,PressureIn,WindDirection,WindDirectionDegrees,WindSpeedMPH,WindSpeedGustMPH,Humidity,HourlyPrecipIn,Conditions,Clouds,dailyrainin,SoftwareType,DateUTC
2013-10-18 00:14:00,66.0,63.0,29.61,SSW,207,3.0,-999.0,90,-99.99,,,-99.99,,2013-10-18 04:14:00,
2013-10-18 00:24:00,66.0,63.0,29.61,WSW,238,4.0,-999.0,90,-99.99,,,-99.99,,2013-10-18 04:24:00,
2013-10-18 00:54:00,65.0,63.0,29.60,WSW,256,4.0,-999.0,93,-99.99,,,-99.99,,2013-10-18 04:54:00,
2013-10-18 01:23:00,65.0,64.0,29.60,SSW,192,3.0,-999.0,95,-99.99,,,-99.99,,2013-10-18 05:23:00,
2013-10-18 01:34:00,65.0,64.0,29.60,SSW,192,3.0,-999.0,95,-99.99,,,-99.99,,2013-10-18 05:34:00,
2013-10-18 01:43:00,65.0,64.0,29.60,SSW,192,3.0,-999.0,95,-99.99,,,-99.99,,2013-10-18 05:43:00,
2013-10-18 01:52:00,65.0,64.0,29.61,SSW,211,2.0,-999.0,95,-99.99,,,-99.99,,2013-10-18 05:52:00,
2013-10-18 02:12:00,65.0,64.0,29.61,WSW,251,2.0,-999.0,95,-99.99,,,-99.99,,2013-10-18 06:12:00,
2013-10-18 02:22:00,64.0,62.0,29.62,NNW,337,1.0,-999.0,94,-99.99,,,-99.99,,2013-10-18 06:22:00,
2013-10-18 02:42:00,63.0,59.0,29.62,WNW,296,2.0,-999.0,88,-99.99,,,-99.99,,2013-10-18 06:42:00,
2013-10-18 02:52:00,62.0,58.0,29.63,NNW,342,2.0,-999.0,86,-99.99,,,-99.99,,2013-10-18 06:52:00,
2013-10-18 03:11:00,62.0,57.0,29.63,WSW,255,2.0,-999.0,84,-99.99,,,-99.99,,2013-10-18 07:11:00,
2013-10-18 03:22:00,62.0,57.0,29.64,NNW,330,2.0,-999.0,83,-99.99,,,-99.99,,2013-10-18 07:22:00,
2013-10-18 03:42:00,61.0,56.0,29.64,North,5,1.0,-999.0,83,-99.99,,,-99.99,,2013-10-18 07:42:00,
2013-10-18 03:52:00,61.0,55.0,29.65,NNW,327,2.0,-999.0,82,-99.99,,,-99.99,,2013-10-18 07:52:00,
2013-10-18 04:11:00,61.0,56.0,29.65,NW,304,2.0,-999.0,83,-99.99,,,-99.99,,2013-10-18 08:11:00,
2013-10-18 04:22:00,60.0,54.0,29.66,NNW,332,2.0,-999.0,82,-99.99,,,-99.99,,2013-10-18 08:22:00,
2013-10-18 04:42:00,60.0,54.0,29.66,North,355,2.0,-999.0,82,-99.99,,,-99.99,,2013-10-18 08:42:00,
2013-10-18 04:52:00,59.0,53.0,29.67,SSW,196,2.0,-999.0,80,-99.99,,,-99.99,,2013-10-18 08:52:00,
2013-10-18 05:12:00,58.0,52.0,29.67,South,182,2.0,-999.0,80,-99.99,,,-99.99,,2013-10-18 09:12:00,
2013-10-18 05:22:00,57.0,51.0,29.68,South,186,1.0,-999.0,79,-99.99,,,-99.99,,2013-10-18 09:22:00,
2013-10-18 05:53:00,56.0,49.0,29.69,SSE,168,2.0,-999.0,77,-99.99,,,-99.99,,2013-10-18 09:53:00,
2013-10-18 06:12:00,56.0,49.0,29.70,South,188,1.0,-999.0,77,-99.99,,,-99.99,,2013-10-18 10:12:00,
2013-10-18 06:23:00,55.0,48.0,29.71,WNW,286,2.0,-999.0,77,-99.99,,,-99.99,,2013-10-18 10:23:00,
2013-10-18 06:53:00,55.0,48.0,29.72,WNW,286,1.0,-999.0,77,-99.99,,,-99.99,,2013-10-18 10:53:00,
2013-10-18 07:12:00,54.0,48.0,29.73,ENE,63,0.0,-999.0,79,-99.99,,,-99.99,,2013-10-18 11:12:00,
2013-10-18 07:22:00,54.0,48.0,29.73,SSW,194,1.0,-999.0,80,-99.99,,,-99.99,,2013-10-18 11:22:00,
2013-10-18 07:42:00,53.0,47.0,29.74,WSW,243,1.0,-999.0,81,-99.99,,,-99.99,,2013-10-18 11:42:00,
2013-10-18 07:52:00,53.0,48.0,29.75,West,273,0.0,-999.0,82,-99.99,,,-99.99,,2013-10-18 11:52:00,
2013-10-18 08:12:00,52.0,47.0,29.75,SSW,211,0.0,-999.0,84,-99.99,,,-99.99,,2013-10-18 12:12:00,
2013-10-18 08:22:00,52.0,47.0,29.76,SW,223,1.0,-999.0,84,-99.99,,,-99.99,,2013-10-18 12:22:00,
2013-10-18 08:42:00,53.0,48.0,29.77,NW,325,1.0,-999.0,82,-99.99,,,-99.99,,2013-10-18 12:42:00,
2013-10-18 08:52:00,54.0,48.0,29.77,NNW,344,1.0,-999.0,81,-99.99,,,-99.99,,2013-10-18 12:52:00,
2013-10-18 09:11:00,55.0,49.0,29.78,North,5,2.0,-999.0,79,-99.99,,,-99.99,,2013-10-18 13:11:00,
2013-10-18 09:22:00,56.0,49.0,29.79,WSW,249,2.0,-999.0,76,-99.99,,,-99.99,,2013-10-18 13:22:00,
2013-10-18 09:42:00,57.0,49.0,29.79,NW,313,2.0,-999.0,74,-99.99,,,-99.99,,2013-10-18 13:42:00,
2013-10-18 09:52:00,57.0,49.0,29.79,NW,311,2.0,-999.0,74,-99.99,,,-99.99,,2013-10-18 13:52:00,
2013-10-18 10:11:00,58.0,49.0,29.80,West,278,3.0,-999.0,71,-99.99,,,-99.99,,2013-10-18 14:11:00,
2013-10-18 10:22:00,60.0,50.0,29.80,NNW,336,2.0,-999.0,70,-99.99,,,-99.99,,2013-10-18 14:22:00,
2013-10-18 10:42:00,61.0,50.0,29.80,North,349,3.0,-999.0,67,-99.99,,,-99.99,,2013-10-18 14:42:00,
2013-10-18 10:52:00,61.0,50.0,29.81,WNW,294,2.0,-999.0,66,-99.99,,,-99.99,,2013-10-18 14:52:00,
2013-10-18 11:11:00,62.0,50.0,29.81,WSW,250,2.0,-999.0,64,-99.99,,,-99.99,,2013-10-18 15:11:00,
2013-10-18 11:22:00,62.0,49.0,29.81,WSW,247,2.0,-999.0,62,-99.99,,,-99.99,,2013-10-18 15:22:00,
2013-10-18 11:43:00,64.0,51.0,29.81,NNW,342,2.0,-999.0,62,-99.99,,,-99.99,,2013-10-18 15:43:00,
2013-10-18 11:54:00,64.0,49.0,29.81,WSW,243,2.0,-999.0,59,-99.99,,,-99.99,,2013-10-18 15:54:00,
2013-10-18 12:13:00,64.0,50.0,29.81,NNW,333,3.0,-999.0,60,-99.99,,,-99.99,,2013-10-18 16:13:00,
2013-10-18 12:24:00,64.0,49.0,29.81,SW,223,2.0,-999.0,59,-99.99,,,-99.99,,2013-10-18 16:24:00,
2013-10-18 12:42:00,64.0,49.0,29.80,WSW,246,3.0,-999.0,59,-99.99,,,-99.99,,2013-10-18 16:42:00,
2013-10-18 12:53:00,65.0,49.0,29.80,North,355,3.0,-999.0,57,-99.99,,,-99.99,,2013-10-18 16:53:00,
2013-10-18 13:12:00,65.0,50.0,29.80,NE,55,2.0,-999.0,58,-99.99,,,-99.99,,2013-10-18 17:12:00,
2013-10-18 13:22:00,66.0,50.0,29.79,NW,313,2.0,-999.0,56,-99.99,,,-99.99,,2013-10-18 17:22:00,
2013-10-18 13:42:00,67.0,49.0,29.79,NW,313,3.0,-999.0,53,-99.99,,,-99.99,,2013-10-18 17:42:00,
2013-10-18 13:52:00,66.0,50.0,29.79,West,265,2.0,-999.0,56,-99.99,,,-99.99,,2013-10-18 17:52:00,
2013-10-18 14:12:00,66.0,50.0,29.79,ESE,104,3.0,-999.0,56,-99.99,,,-99.99,,2013-10-18 18:12:00,
2013-10-18 14:22:00,66.0,50.0,29.79,ESE,104,3.0,-999.0,56,-99.99,,,-99.99,,2013-10-18 18:22:00,
2013-10-18 14:42:00,66.0,48.0,29.78,WNW,300,3.0,-999.0,53,-99.99,,,-99.99,,2013-10-18 18:42:00,
2013-10-18 14:52:00,67.0,49.0,29.78,West,264,3.0,-999.0,53,-99.99,,,-99.99,,2013-10-18 18:52:00,
2013-10-18 15:12:00,67.0,49.0,29.79,SW,233,2.0,-999.0,53,-99.99,,,-99.99,,2013-10-18 19:12:00,
2013-10-18 15:22:00,67.0,49.0,29.78,NNE,25,2.0,-999.0,53,-99.99,,,-99.99,,2013-10-18 19:22:00,
2013-10-18 15:42:00,67.0,49.0,29.78,NNW,334,2.0,-999.0,53,-99.99,,,-99.99,,2013-10-18 19:42:00,
2013-10-18 15:52:00,67.0,49.0,29.78,WNW,289,2.0,-999.0,53,-99.99,,,-99.99,,2013-10-18 19:52:00,
2013-10-18 16:11:00,67.0,49.0,29.78,NW,319,2.0,-999.0,52,-99.99,,,-99.99,,2013-10-18 20:11:00,
2013-10-18 16:22:00,67.0,50.0,29.78,West,271,2.0,-999.0,54,-99.99,,,-99.99,,2013-10-18 20:22:00,
2013-10-18 16:42:00,66.0,48.0,29.78,South,170,2.0,-999.0,53,-99.99,,,-99.99,,2013-10-18 20:42:00,
2013-10-18 16:52:00,66.0,49.0,29.78,West,259,1.0,-999.0,55,-99.99,,,-99.99,,2013-10-18 20:52:00,
2013-10-18 17:12:00,65.0,48.0,29.78,East,92,2.0,-999.0,55,-99.99,,,-99.99,,2013-10-18 21:12:00,
2013-10-18 17:22:00,65.0,49.0,29.79,NNE,27,2.0,-999.0,56,-99.99,,,-99.99,,2013-10-18 21:22:00,
2013-10-18 17:44:00,64.0,48.0,29.80,NW,311,1.0,-999.0,56,-99.99,,,-99.99,,2013-10-18 21:44:00,
2013-10-18 17:54:00,63.0,48.0,29.80,SW,216,1.0,-999.0,58,-99.99,,,-99.99,,2013-10-18 21:54:00,
2013-10-18 18:13:00,62.0,47.0,29.80,SSE,164,1.0,-999.0,58,-99.99,,,-99.99,,2013-10-18 22:13:00,
2013-10-18 18:24:00,61.0,47.0,29.81,ENE,71,1.0,-999.0,59,-99.99,,,-99.99,,2013-10-18 22:24:00,
2013-10-18 18:43:00,61.0,47.0,29.82,WSW,246,1.0,-999.0,61,-99.99,,,-99.99,,2013-10-18 22:43:00,
2013-10-18 18:54:00,59.0,46.0,29.82,NNW,333,0.0,-999.0,63,-99.99,,,-99.99,,2013-10-18 22:54:00,
2013-10-18 19:12:00,58.0,46.0,29.83,WNW,297,0.0,-999.0,64,-99.99,,,-99.99,,2013-10-18 23:12:00,
2013-10-18 19:23:00,58.0,47.0,29.83,WSW,254,0.0,-999.0,66,-99.99,,,-99.99,,2013-10-18 23:23:00,
2013-10-18 19:43:00,57.0,47.0,29.84,WSW,250,0.0,-999.0,69,-99.99,,,-99.99,,2013-10-18 23:43:00,
2013-10-18 19:53:00,56.0,47.0,29.85,WSW,250,0.0,-999.0,71,-99.99,,,-99.99,,2013-10-18 23:53:00,
2013-10-18 20:12:00,55.0,46.0,29.85,WNW,298,0.0,-999.0,72,-99.99,,,-99.99,,2013-10-19 00:12:00,
2013-10-18 20:22:00,55.0,47.0,29.85,South,184,0.0,-999.0,73,-99.99,,,-99.99,,2013-10-19 00:22:00,
2013-10-18 20:42:00,55.0,46.0,29.86,WSW,249,0.0,-999.0,72,-99.99,,,-99.99,,2013-10-19 00:42:00,
2013-10-18 20:52:00,54.0,45.0,29.87,WNW,282,0.0,-999.0,72,-99.99,,,-99.99,,2013-10-19 00:52:00,
2013-10-18 21:12:00,54.0,46.0,29.87,West,275,0.0,-999.0,73,-99.99,,,-99.99,,2013-10-19 01:12:00,
2013-10-18 21:22:00,53.0,45.0,29.87,West,275,0.0,-999.0,74,-99.99,,,-99.99,,2013-10-19 01:22:00,
2013-10-18 21:42:00,52.0,44.0,29.87,West,275,0.0,-999.0,75,-99.99,,,-99.99,,2013-10-19 01:42:00,
2013-10-18 21:53:00,51.0,44.0,29.88,West,275,0.0,-999.0,76,-99.99,,,-99.99,,2013-10-19 01:53:00,
2013-10-18 22:12:00,51.0,44.0,29.88,West,275,0.0,-999.0,78,-99.99,,,-99.99,,2013-10-19 02:12:00,
2013-10-18 22:22:00,50.0,44.0,29.88,West,275,0.0,-999.0,80,-99.99,,,-99.99,,2013-10-19 02:22:00,
2013-10-18 22:42:00,49.0,43.0,29.88,West,275,0.0,-999.0,81,-99.99,,,-99.99,,2013-10-19 02:42:00,
2013-10-18 22:52:00,48.0,43.0,29.89,West,275,0.0,-999.0,83,-99.99,,,-99.99,,2013-10-19 02:52:00,
2013-10-18 23:12:00,48.0,43.0,29.89,West,275,0.0,-999.0,84,-99.99,,,-99.99,,2013-10-19 03:12:00,
2013-10-18 23:23:00,47.0,43.0,29.89,West,275,0.0,-999.0,86,-99.99,,,-99.99,,2013-10-19 03:23:00,
2013-10-18 23:44:00,46.0,42.0,29.89,West,275,0.0,-999.0,86,-99.99,,,-99.99,,2013-10-19 03:44:00,
2013-10-18 23:55:00,46.0,43.0,29.89,West,275,0.0,-999.0,88,-99.99,,,-99.99,,2013-10-19 03:55:00,